Content
SEND FEEDBACK

Daily
Averages
Monthly
Summary
Mexico

SAN MARTINIANO, QUINTANA ROO


Home > North America > Mexico > Quintana Roo
Elevation: 15 meters     Latitude: 20 47N     Longitude: 087 16W

WEATHER
 
SELECT A DAY
Number of Records: 202,176;   Date Range: 2/21/06 - 10/24/14
 
SHARE

PRINT THIS DATA

[ ← Previous Day ]
WEATHER ALMANAC - 3 FEBRUARY, 2014
[ Next Day → ]
[ °F ]   °C
Weather ElementAverageHighLow
Temperature22.6 °C30 °C (1:55 pm)17 °C (4:15 am)
Dewpoint-2.5 °C21 °C (7:55 pm) (7:00 pm)
Humidity58.7 %94 % (7:55 pm)40 % (1:55 pm)
Barometer1019.3 hPa1021 hPa (9:35 am)1017.6 hPa (2:55 pm)
Wind Speed6.1 km/h18.5 km/h (3:15 pm)
Wind Gust27.8 km/h (4:15 pm)
Weather ElementAverage
Visibility12.4 km
Wind DirectionESE (128.1 °)

Weather ElementTotal
Precipitation---
Cooling Degree Days5.2 (Base 18.3)
Growing Degree Days13.5 (Base 10)
Averaged from 70 records on 3 February, 2014
WEATHER CONDITIONS BREAKOUT
WIND DIRECTION BREAKOUT
WEATHER BY HOUR - 3 FEBRUARY, 2014
[ °F ]   °C
Local TimeTemperatureDewpointHumidityBarometerVisibilityWind DirectionWind SpeedGust SpeedPrecipitationEventsConditions
12:55 AM18 °C-17.8 °C1019 hPa11.3 kmCalmMostly Cloudy
1:15 AM18 °C-17.8 °C1019 hPa16.1 kmCalmMostly Cloudy
1:35 AM18 °C-17.8 °C1019 hPa11.3 kmCalmMostly Cloudy
1:55 AM19 °C-17.8 °C1019 hPa16.1 kmCalmScattered Clouds
2:15 AM18 °C-17.8 °C1019 hPa16.1 kmCalmMostly Cloudy
2:35 AM19 °C-17.8 °C1019 hPa16.1 kmCalmOvercast
2:55 AM19 °C-17.8 °C1018.6 hPa16.1 kmCalmScattered Clouds
3:15 AM19 °C-17.8 °C1019 hPa16.1 kmCalmScattered Clouds
3:35 AM18 °C-17.8 °C1019 hPa16.1 kmCalmClear
3:55 AM18 °C-17.8 °C1019 hPa8 kmCalmHaze
4:15 AM17 °C-17.8 °C1019 hPa6.4 kmCalmHaze
4:35 AM17 °C-17.8 °C1019 hPa4.8 kmCalmMist
4:55 AM17 °C-17.8 °C1019 hPa11.3 kmCalmOvercast
5:15 AM17 °C-17.8 °C1019 hPa11.3 kmCalmOvercast
5:35 AM17 °C-17.8 °C1019.3 hPa11.3 kmCalmOvercast
5:55 AM18 °C-17.8 °C1019.3 hPa11.3 kmCalmOvercast
6:15 AM18 °C-17.8 °C1019.3 hPa4.8 kmCalmOvercast
6:35 AM18 °C-17.8 °C1019.3 hPa11.3 kmCalmOvercast
6:55 AM17 °C-17.8 °C1019.6 hPa8 kmENE (70°)5.6 km/hHaze
7:15 AM18 °C-17.8 °C1019.6 hPa6.4 kmCalmHaze
7:35 AM18 °C-17.8 °C1019.6 hPa4.8 kmEast (100°)5.6 km/hOvercast
7:55 AM18 °C-17.8 °C1020 hPa1.6 kmCalmOvercast
8:15 AM19 °C-17.8 °C1020 hPa0.3 kmCalmFogFog
8:35 AM20 °C-17.8 °C1020.3 hPa0.3 kmSE (140°)5.6 km/hFogFog
8:55 AM21 °C-17.8 °C1020.7 hPa3.2 kmSSE (150°)5.6 km/hOvercast
9:15 AM22 °C-17.8 °C1020.7 hPa8 kmSSE (160°)9.3 km/hHaze
9:35 AM23 °C-17.8 °C1021 hPa11.3 kmSouth (180°)13 km/hMostly Cloudy
9:55 AM24 °C-17.8 °C1021 hPa16.1 kmSouth (180°)11.1 km/hMostly Cloudy
10:15 AM25 °C-17.8 °C1021 hPa16.1 kmSSW (200°)11.1 km/hScattered Clouds
10:35 AM26 °C20 °C69 %1021 hPa16.1 kmSouth (190°)13 km/hScattered Clouds
10:55 AM26 °C20 °C69 %1021 hPa16.1 kmSW (220°)11.1 km/hMostly Cloudy
11:15 AM26 °C20 °C69 %1020.7 hPa16.1 kmSSW (210°)9.3 km/hMostly Cloudy
11:35 AM28 °C19 °C58 %1020.7 hPa16.1 kmSSW (200°)11.1 km/hScattered Clouds
11:55 AM27 °C19 °C61 %1020.3 hPa16.1 kmSSW (210°)14.8 km/hScattered Clouds
12:15 PM28 °C18 °C54 %1020 hPa16.1 kmSW (230°)11.1 km/hMostly Cloudy
12:35 PM29 °C18 °C51 %1019.6 hPa16.1 kmSSW (210°)5.6 km/hScattered Clouds
12:55 PM28 °C18 °C54 %1019.3 hPa16.1 kmWSW (240°)13 km/hScattered Clouds
1:15 PM28 °C16 °C48 %1019 hPa16.1 kmWSW (240°)9.3 km/hClear
1:35 PM29 °C17 °C48 %1018.3 hPa16.1 kmSW (230°)11.1 km/hClear
1:55 PM30 °C15 °C40 %1018.3 hPa16.1 kmSW (230°)13 km/hClear
2:15 PM29 °C16 °C45 %1017.9 hPa16.1 kmWest (270°)14.8 km/hScattered Clouds
2:35 PM29 °C16 °C45 %1017.9 hPa16.1 kmWest (260°)16.7 km/hScattered Clouds
2:55 PM29 °C17 °C48 %1017.6 hPa16.1 kmWSW (240°)13 km/hClear
3:15 PM29 °C16 °C45 %1017.6 hPa16.1 kmWest (270°)18.5 km/hClear
3:35 PM29 °C17 °C48 %1017.6 hPa16.1 kmWSW (240°)18.5 km/h25.9 km/hScattered Clouds
3:55 PM29 °C17 °C48 %1017.6 hPa16.1 kmWest (260°)16.7 km/hScattered Clouds
4:15 PM29 °C17 °C48 %1017.9 hPa16.1 kmWSW (250°)16.7 km/h27.8 km/hClear
4:35 PM28 °C17 °C51 %1017.6 hPa16.1 kmWest (280°)13 km/hClear
4:55 PM28 °C17 °C51 %1017.9 hPa16.1 kmWest (270°)16.7 km/hClear
5:15 PM27 °C17 °C54 %1018.3 hPa16.1 kmWest (270°)9.3 km/hClear
5:35 PM27 °C17 °C54 %1018.3 hPa16.1 kmWest (260°)13 km/hClear
5:55 PM26 °C17 °C57 %1018.3 hPa16.1 kmWest (280°)11.1 km/hClear
6:15 PM25 °C18 °C65 %1018.3 hPa16.1 kmWest (280°)9.3 km/hClear
6:35 PM25 °C18 °C65 %1018.6 hPa16.1 kmWest (270°)9.3 km/hClear
6:55 PM23 °C18 °C73 %1018.6 hPa16.1 kmWSW (250°)7.4 km/hClear
7:15 PM23 °C19 °C78 %1018.6 hPa16.1 kmWest (260°)7.4 km/hClear
7:35 PM23 °C19 °C78 %1019 hPa16.1 kmWSW (240°)5.6 km/hClear
7:55 PM22 °C21 °C94 %1019 hPa16.1 kmSW (220°)7.4 km/hClear
8:15 PM22 °C21 °C94 %1019 hPa16.1 kmCalmClear
8:35 PM22 °C-17.8 °C1019.3 hPa16.1 kmCalmClear
8:55 PM21 °C-17.8 °C1019.3 hPa16.1 kmCalmClear
9:15 PM21 °C-17.8 °C1019.6 hPa16.1 kmCalmClear
9:35 PM20 °C-17.8 °C1020 hPa8 kmCalmHaze
9:55 PM20 °C-17.8 °C1020 hPa11.3 kmCalmClear
10:15 PM20 °C-17.8 °C1020 hPa3.2 kmCalmClear
10:35 PM20 °C-17.8 °C1020 hPa11.3 kmNorth (350°)5.6 km/hClear
10:55 PM20 °C-17.8 °C1020 hPa6.4 kmNorth (360°)5.6 km/hHaze
11:15 PM20 °C-17.8 °C1020 hPa0.3 kmCalmFogFog
11:35 PM20 °C-17.8 °C1020 hPa0.3 kmCalmFogFog
11:55 PM20 °C-17.8 °C1020 hPa0.3 kmCalmFogFog
Hourly data recorded from KPCM, located 0 kilometers away from San Martiniano, Quintana Roo







STORIES FROM OUR PARTNERS